This demonstration page uses our WeatherBlox Daily Observations layout. Learn more.

Left ArrowRight Arrow

38.80484, -77.04692

Hourly Observations for April 23, 2016

Temp ( °F °C ) Dew Point ( °F °C ) Humidity (%) Winds ( mph kmh ) Pressure ( in mb ) Visibility ( mi km ) Precip ( " mm )
12:27 am 00:27 Cloudy 65 18.3 61 16.1 87 87 SSW 8 13 29.85 1011 10 16 0.00 0.00
12:52 am 00:52 Cloudy 64 17.8 61 16.1 90 90 SSW 9 15 29.84 1011 10 16 0.00 0.00
12:57 am 00:57 Cloudy 64 17.8 61 16.1 90 90 SSW 6 9 29.85 1011 10 16 0.00 0.00
1:52 am 01:52 Cloudy 64 17.8 61 16.1 90 90 SSW 7 11 29.82 1010 10 16 0.00 0.00
2:18 am 02:18 Cloudy 64 18 61 16 88 88 SW 7 11 29.83 1010 10 16 0.00 0.00
2:27 am 02:27 Cloudy 64 17.8 61 16.1 90 90 SSW 8 13 29.80 1009 10 16 0.00 0.00
2:52 am 02:52 Cloudy 64 17.8 61 16.1 90 90 SSW 6 9 29.80 1009 10 16 0.00 0.00
3:39 am 03:39 Cloudy 64 17.8 61 16.1 90 90 SSW 5 7 29.80 1009 10 16 0.00 0.00
3:52 am 03:52 Cloudy 64 17.8 61 16.1 90 90 SW 5 7 29.80 1009 10 16 0.00 0.00
4:22 am 04:22 Cloudy with Light Rain 64 18 61 16 88 88 W 7 11 29.80 1009 10 16 0.00 0.00
4:52 am 04:52 Cloudy 63 17.2 59 15 87 87 NW 8 13 29.80 1009 10 16 0.00 0.03
5:52 am 05:52 Cloudy 62 16.7 58 14.4 86 86 NNW 10 17 29.80 1009 10 16 0.00 0.00
6:52 am 06:52 Cloudy 63 17.2 58 14.4 84 84 NNW 12 19 29.82 1010 10 16 0.00 0.00
7:52 am 07:52 Cloudy 63 17.2 58 14.4 84 84 NNW 12 19 29.84 1011 10 16 0.00 0.00
8:52 am 08:52 Cloudy with Light Rain 63 17.2 59 15 87 87 NW 13 20 29.85 1011 8 13 0.00 0.03
8:58 am 08:58 Cloudy with Light Rain 63 17 59 15 88 88 NW 12 19 29.85 1011 6 10 0.00 0.00
9:22 am 09:22 Cloudy with Heavy Rain 63 17 59 15 88 88 NNW 12 19 29.85 1011 2 3 0.00 0.00
9:24 am 09:24 Cloudy with Heavy Rain 63 17 59 15 88 88 NNW 10 17 29.88 1012 2 3 0.00 0.00
9:31 am 09:31 Cloudy with Rain 62 16.7 60 15.6 93 93 NNW 12 19 29.88 1012 3 4 0.09 2.29
9:33 am 09:33 Cloudy with Light Rain 62 16.7 59 15 90 90 NNW 10 17 29.88 1012 3 5 0.10 2.54
9:52 am 09:52 Cloudy with Light Rain 62 16.7 59 15 90 90 N 14 22 29.87 1012 5 8 0.12 3.05
10:17 am 10:17 Cloudy with Light Rain 62 16.7 59 15 90 90 NNW 13 20 29.88 1012 6 10 0.04 1.02
10:23 am 10:23 Cloudy with Light Rain 62 16.7 59 15 90 90 N 12 19 29.88 1012 7 11 0.04 1.02
10:29 am 10:29 Cloudy with Light Rain 62 16.7 59 15 90 90 N 12 19 29.88 1012 6 10 0.05 1.27
10:52 am 10:52 Cloudy with Light Rain 62 16.7 58 14.4 86 86 N 13 20 29.89 1012 6 10 0.10 2.54
10:54 am 10:54 Cloudy with Light Rain 63 17 57 14 83 83 N 13 20 29.91 1013 8 13 0.00 0.00
11:45 am 11:45 Cloudy with Light Rain 61 16.1 58 14.4 90 90 N 10 17 29.91 1013 6 10 0.03 0.76
11:52 am 11:52 Cloudy with Light Rain 61 16.1 58 14.4 90 90 NNW 15 24 29.90 1013 6 10 0.03 0.76
12:15 pm 12:15 Cloudy with Light Rain 62 16.7 58 14.4 86 86 N 14 22 29.91 1013 10 16 0.01 0.25
12:52 pm 12:52 Cloudy 63 17.2 55 12.8 76 76 N 16 26 29.90 1013 10 16 0.01 0.25
1:38 pm 13:38 Cloudy 64 18 55 13 73 73 N 12 19 29.91 1013 10 16 0.00 0.00
1:48 pm 13:48 Cloudy 66 19 55 13 68 68 N 15 24 29.91 1013 10 16 0.00 0.00
1:52 pm 13:52 Mostly Cloudy 67 19.4 56 13.3 68 68 N 15 24 29.89 1012 10 16 0.00 0.00
2:52 pm 14:52 Mostly Cloudy 67 19.4 53 11.7 61 61 NNW 15 24 29.88 1012 10 16 0.00 0.00
3:52 pm 15:52 Mostly Cloudy 67 19.4 52 11.1 59 59 N 16 26 29.88 1012 10 16 0.00 0.00
4:52 pm 16:52 Mostly Cloudy 71 21.7 50 10 47 47 N 13 20 29.87 1012 10 16 0.00 0.00
5:52 pm 17:52 Mostly Cloudy 70 21.1 49 9.4 47 47 N 15 24 29.88 1012 10 16 0.00 0.00
6:52 pm 18:52 Mostly Sunny 68 20 46 7.8 45 45 N 17 28 29.90 1013 10 16 0.00 0.00
7:52 pm 19:52 Mostly Sunny 66 18.9 45 7.2 47 47 NNE 14 22 29.92 1013 10 16 0.00 0.00
8:52 pm 20:52 Clear 63 17.2 40 4.4 43 43 NNE 14 22 29.95 1014 10 16 0.00 0.00
9:52 pm 21:52 Clear 61 16.1 35 1.7 38 38 NNE 18 30 29.98 1015 10 16 0.00 0.00
10:52 pm 22:52 Clear 59 15 34 1.1 39 39 NNE 14 22 29.99 1016 10 16 0.00 0.00
11:52 pm 23:52 Clear 57 13.9 32 0 39 39 N 12 19 30.01 1016 10 16 0.00 0.00

Powered by AerisWeather